sat.trackr.live / text

‹ back to catalog

STARLINK-37722

NORAD 69125 · 2026-110B

PAYLOAD ACTIVE UNKNOWN

§ Identity

Operator
Country
US
Launch date
2026-05-20
Launch site
AFWTR
Launch vehicle
Mass (kg)
RCS (m²)

Purposes: comms

External: N2YO · Heavens-Above · Gunter

§ Orbital elements

Epoch: 2026-09-19T23:33:13.468032Z

Period
93.90 min
Inclination
97.2856°
Eccentricity
0.0000693
Mean motion
15.33473923 rev/d
Perigee alt
465.0 km
Apogee alt
465.9 km
Semi-major
6,843.6 km
B*
6.7216e-4
RAAN
97.9993°
Arg perigee
119.9549°
Mean anomaly
240.1763°
Rev number
2,013

§ Raw data

STARLINK-377221 69125U 26110B   26262.98140588  .00021707  00000+0  67216-3 0  99952 69125  97.2856  97.9993 0000693 119.9549 240.1763 15.33473923 20133

JSON: /api/v1/satellites/69125 · /tle

For live sub-satellite position, see the globe view (requires WebGL).

§ Visibility from observer

Set your observer location to see the next 7 days of passes ≥ 10°. The values pass through the URL so the page stays shareable.

No JS? Fill the form by hand. The geolocation button needs JavaScript.